Regional Weather Roundup
Issued by NWS

Home | Current Version | Previous Version | Text Only | Print | Product List | Glossary Off
Versions: 1 2 3 4 5 6 7 8 9 10 11 12 13 14 15 16 17 18 19 20 21 22 23 24 25 26 27 28 29 30 31 32 33 34 35 36 37 38 39 40 41 42 43 44 45 46 47 48 49 50

000
ASUS43 KTOP 251859
RWRKS

WEATHER ROUNDUP FOR KANSAS
NATIONAL WEATHER SERVICE GOODLAND KS
200 PM CDT SUN JUN 25 2017

NOTE:  "FAIR" INDICATES FEW OR NO CLOUDS BELOW 12,000 FEET WITH NO
SIGNIFICANT WEATHER AND/OR OBSTRUCTIONS TO VISIBILITY.

KSZ001>006-013>018-027>032-041>047-252000-
NORTHWEST KANSAS

CITY           SKY/WX    TMP DP  RH WIND       PRES   REMARKS
GOODLAND       CLOUDY    62  58  86 E17       30.34S
HAYS           RAIN      63  61  93 N6        30.38R
HILL CITY      PTSUNNY   58  55  90 E12       30.36F
RUSSELL        LGT RAIN  66  59  78 CALM      30.35R
$$

KSZ061>065-074>080-084>089-252000-
SOUTHWEST KANSAS

CITY           SKY/WX    TMP DP  RH WIND       PRES   REMARKS
DODGE CITY     CLOUDY    74  55  51 S12       30.28S
ELKHART          N/A     70  54  57 SE13        N/A
GARDEN CITY    CLOUDY    72  54  53 SW3       30.32R
GREAT BEND     RAIN      66  61  84 N10       30.34R
LIBERAL        LGT RAIN  66  63  90 S9        30.29F
$$

KSZ066>073-081>083-090>101-252000-
SOUTHEAST KANSAS

CITY           SKY/WX    TMP DP  RH WIND       PRES   REMARKS
CHANUTE        MOSUNNY   83  53  35 W5        30.26F
COFFEYVILLE    SUNNY     86  52  30 NW7       30.25F
HUTCHINSON     CLOUDY    75  59  57 NE10      30.28F
MEDICINE LODGE   N/A     86  47  25 SE9       30.24F
NEWTON         CLOUDY    72  58  61 NE7       30.31R
PARSONS        MOSUNNY   85  51  31 VRB5      30.27F
WICHITA INTL   CLOUDY    82  56  40 W5        30.26F
WICHITA JABRA  CLOUDY    80  60  50 E6        30.27F
WINFIELD       MOSUNNY   82  54  37 SE6       30.27F
$$

KSZ007>012-019>026-033>040-048>060-102>105-252000-
NORTHEAST KANSAS

CITY           SKY/WX    TMP DP  RH WIND       PRES   REMARKS
CONCORDIA      LGT RAIN  64  51  62 CALM      30.35R
EMPORIA        CLOUDY    76  57  51 N9        30.29S
LAWRENCE       CLOUDY    77  50  38 NW9       30.28F
MANHATTAN      CLOUDY    69  51  52 N5        30.31F
OLATHE IND     SUNNY     76  50  40 NW13      30.29S
OLATHE EXE     SUNNY     78  48  34 N7        30.28F
SALINA         CLOUDY    70  57  63 E5        30.32S
TOPEKA BILLARD CLOUDY    73  52  47 N6        30.29F
TOPEKA FORBES  CLOUDY    75  51  43 N6        30.30F
$$




USA.gov is the U.S. government's official web portal to all federal, state and local government web resources and services.